Time,TemperatureF,DewpointF,PressureIn,WindDirection,WindDirectionDegrees,WindSpeedMPH,WindSpeedGustMPH,Humidity,HourlyPrecipIn,Conditions,Clouds,dailyrainin,SoftwareType,DateUTC
2013-05-19 00:01:00,40.6,32.0,29.71,SSE,162,0.0,0.0,71,0.00,,---,0.00,VWS V12.07,2013-05-19 06:01:00,
2013-05-19 00:16:00,40.2,31.6,29.70,South,188,0.0,6.0,71,0.00,,---,0.00,VWS V12.07,2013-05-19 06:16:00,
2013-05-19 00:31:00,38.9,30.7,29.72,South,188,0.0,0.0,72,0.00,,---,0.00,VWS V12.07,2013-05-19 06:31:00,
2013-05-19 00:46:00,38.3,29.7,29.72,South,189,0.0,0.0,71,0.00,,---,0.00,VWS V12.07,2013-05-19 06:46:00,
2013-05-19 01:01:00,38.1,29.5,29.72,South,188,0.0,0.0,71,0.00,,---,0.00,VWS V12.07,2013-05-19 07:01:00,
2013-05-19 01:16:00,39.1,29.8,29.72,South,188,0.0,0.0,69,0.00,,---,0.00,VWS V12.07,2013-05-19 07:16:00,
2013-05-19 01:31:00,39.8,29.8,29.71,South,189,0.0,0.0,67,0.00,,---,0.00,VWS V12.07,2013-05-19 07:31:00,
2013-05-19 01:46:00,38.9,28.9,29.71,South,189,0.0,4.0,67,0.00,,---,0.00,VWS V12.07,2013-05-19 07:46:00,
2013-05-19 02:01:00,37.5,28.3,29.73,South,188,4.0,4.0,69,0.00,,---,0.00,VWS V12.07,2013-05-19 08:01:00,
2013-05-19 02:16:00,37.9,29.0,29.73,South,186,0.0,5.0,70,0.00,,---,0.00,VWS V12.07,2013-05-19 08:16:00,
2013-05-19 02:31:00,37.6,28.7,29.73,South,186,0.0,4.0,70,0.00,,---,0.00,VWS V12.07,2013-05-19 08:31:00,
2013-05-19 02:46:00,38.1,28.8,29.73,SSW,192,0.0,5.0,69,0.00,,---,0.00,VWS V12.07,2013-05-19 08:46:00,
2013-05-19 03:01:00,37.2,28.7,29.73,SSW,193,0.0,0.0,71,0.00,,---,0.00,VWS V12.07,2013-05-19 09:01:00,
2013-05-19 03:16:00,36.9,29.1,29.75,SSW,192,0.0,0.0,73,0.00,,---,0.00,VWS V12.07,2013-05-19 09:16:00,
2013-05-19 03:31:00,37.9,29.0,29.74,South,178,4.0,6.0,70,0.00,,---,0.00,VWS V12.07,2013-05-19 09:31:00,
2013-05-19 03:46:00,38.0,29.1,29.74,South,182,5.0,7.0,70,0.00,,---,0.00,VWS V12.07,2013-05-19 09:46:00,
2013-05-19 04:01:00,37.7,28.8,29.74,South,182,0.0,0.0,70,0.00,,---,0.00,VWS V12.07,2013-05-19 10:01:00,
2013-05-19 04:16:00,37.3,29.1,29.75,South,182,0.0,0.0,72,0.00,,---,0.00,VWS V12.07,2013-05-19 10:16:00,
2013-05-19 04:31:00,37.7,29.5,29.75,South,180,2.0,3.0,72,0.00,,---,0.00,VWS V12.07,2013-05-19 10:31:00,
2013-05-19 04:46:00,38.6,29.7,29.74,South,180,0.0,5.0,70,0.00,,---,0.00,VWS V12.07,2013-05-19 10:46:00,
2013-05-19 05:01:00,38.8,29.5,29.74,South,180,0.0,0.0,69,0.00,,---,0.00,VWS V12.07,2013-05-19 11:01:00,
2013-05-19 05:16:00,38.9,29.6,29.72,South,181,0.0,0.0,69,0.00,,---,0.00,VWS V12.07,2013-05-19 11:16:00,
2013-05-19 05:31:00,38.1,29.2,29.73,South,180,0.0,0.0,70,0.00,,---,0.00,VWS V12.07,2013-05-19 11:31:00,
2013-05-19 05:46:00,37.0,28.5,29.73,South,181,0.0,0.0,71,0.00,,---,0.00,VWS V12.07,2013-05-19 11:46:00,
2013-05-19 06:01:00,37.4,29.2,29.73,SSE,163,2.0,5.0,72,0.00,,---,0.00,VWS V12.07,2013-05-19 12:01:00,
2013-05-19 06:16:00,37.2,29.4,29.77,SSE,163,0.0,5.0,73,0.00,,---,0.00,VWS V12.07,2013-05-19 12:16:00,
2013-05-19 06:31:00,37.0,29.8,29.77,SSE,162,2.0,3.0,75,0.00,,---,0.00,VWS V12.07,2013-05-19 12:31:00,
2013-05-19 06:46:00,37.7,31.1,29.79,SSE,161,0.0,5.0,77,0.00,,---,0.00,VWS V12.07,2013-05-19 12:46:00,
2013-05-19 07:01:00,40.1,32.5,29.77,SSE,161,0.0,0.0,74,0.00,,---,0.00,VWS V12.07,2013-05-19 13:01:00,
2013-05-19 07:16:00,44.4,32.6,29.80,SE,140,0.0,2.0,63,0.00,,---,0.00,VWS V12.07,2013-05-19 13:16:00,
2013-05-19 07:31:00,42.4,31.5,29.80,SSE,150,0.0,0.0,65,0.00,,---,0.00,VWS V12.07,2013-05-19 13:31:00,
2013-05-19 07:46:00,43.8,31.6,29.80,SE,133,2.0,6.0,62,0.00,,---,0.00,VWS V12.07,2013-05-19 13:46:00,
2013-05-19 08:01:00,45.2,31.3,29.79,ESE,115,2.0,4.0,58,0.00,,---,0.00,VWS V12.07,2013-05-19 14:01:00,
2013-05-19 08:16:00,47.1,32.7,29.80,ESE,113,3.0,3.0,57,0.00,,---,0.00,VWS V12.07,2013-05-19 14:16:00,
2013-05-19 08:31:00,47.6,31.3,29.79,West,279,0.0,5.0,53,0.00,,---,0.00,VWS V12.07,2013-05-19 14:31:00,
2013-05-19 08:46:00,46.1,33.8,29.81,West,273,0.0,12.0,62,0.00,,---,0.00,VWS V12.07,2013-05-19 14:46:00,
2013-05-19 09:01:00,45.9,32.0,29.81,North,9,4.0,4.0,58,0.00,,---,0.00,VWS V12.07,2013-05-19 15:01:00,
2013-05-19 09:19:00,46.3,32.3,29.81,NE,34,1.0,10.0,58,0.00,,---,0.00,VWS V12.07,2013-05-19 15:19:00,
2013-05-19 09:31:00,46.1,31.3,29.81,West,281,0.0,0.0,56,0.00,,---,0.00,VWS V12.07,2013-05-19 15:31:00,
2013-05-19 09:46:00,46.7,33.2,29.80,North,5,0.0,5.0,59,0.00,,---,0.00,VWS V12.07,2013-05-19 15:46:00,
2013-05-19 10:01:00,48.3,32.4,29.78,NE,42,8.0,10.0,54,0.00,,---,0.00,VWS V12.07,2013-05-19 16:01:00,
2013-05-19 10:16:00,48.4,32.5,29.78,ENE,57,2.0,10.0,54,0.00,,---,0.00,VWS V12.07,2013-05-19 16:16:00,
2013-05-19 10:31:00,50.3,31.4,29.76,NE,38,1.0,5.0,48,0.00,,---,0.00,VWS V12.07,2013-05-19 16:31:00,
2013-05-19 10:46:00,51.0,27.5,29.75,SW,229,1.0,20.0,40,0.00,,---,0.00,VWS V12.07,2013-05-19 16:46:00,
2013-05-19 11:01:00,52.1,27.9,29.74,WSW,254,1.0,11.0,39,0.00,,---,0.00,VWS V12.07,2013-05-19 17:01:00,
2013-05-19 11:16:00,53.1,29.4,29.73,WSW,245,4.0,23.0,40,0.00,,---,0.00,VWS V12.07,2013-05-19 17:16:00,
2013-05-19 11:31:00,54.8,27.7,29.72,SW,216,2.0,7.0,35,0.00,,---,0.00,VWS V12.07,2013-05-19 17:31:00,
2013-05-19 11:46:00,56.1,31.5,29.72,West,281,6.0,18.0,39,0.00,,---,0.00,VWS V12.07,2013-05-19 17:46:00,
2013-05-19 12:01:00,51.5,31.4,29.75,NNW,340,4.0,11.0,46,0.00,,---,0.00,VWS V12.07,2013-05-19 18:01:00,
2013-05-19 12:16:00,50.0,33.6,29.78,North,360,2.0,14.0,53,0.00,,---,0.00,VWS V12.07,2013-05-19 18:16:00,
2013-05-19 12:31:00,51.6,32.6,29.76,North,360,4.0,10.0,48,0.00,,---,0.00,VWS V12.07,2013-05-19 18:31:00,
2013-05-19 12:46:00,49.9,32.5,29.78,North,360,6.0,15.0,51,0.00,,---,0.00,VWS V12.07,2013-05-19 18:46:00,
2013-05-19 13:01:00,52.4,32.8,29.75,ENE,69,9.0,11.0,47,0.00,,---,0.00,VWS V12.07,2013-05-19 19:01:00,
2013-05-19 13:16:00,51.2,32.2,29.76,NNW,342,3.0,17.0,48,0.00,,---,0.00,VWS V12.07,2013-05-19 19:16:00,
2013-05-19 13:31:00,51.1,31.6,29.76,NW,323,5.0,6.0,47,0.00,,---,0.00,VWS V12.07,2013-05-19 19:31:00,
2013-05-19 13:46:00,50.6,32.2,29.78,North,360,4.0,12.0,49,0.00,,---,0.00,VWS V12.07,2013-05-19 19:46:00,
2013-05-19 14:01:00,49.5,33.6,29.77,NW,314,9.0,11.0,54,0.00,,---,0.00,VWS V12.07,2013-05-19 20:01:00,
2013-05-19 14:16:00,43.4,32.4,29.85,NNW,346,2.0,13.0,65,0.02,,---,0.02,VWS V12.07,2013-05-19 20:16:00,
2013-05-19 14:31:00,42.2,34.5,29.89,WSW,250,5.0,7.0,74,0.03,,---,0.03,VWS V12.07,2013-05-19 20:31:00,
2013-05-19 14:46:00,39.3,33.0,29.90,North,360,0.0,14.0,78,0.04,,---,0.04,VWS V12.07,2013-05-19 20:46:00,
2013-05-19 15:01:00,41.8,37.3,29.89,North,350,5.0,10.0,84,0.05,,---,0.05,VWS V12.07,2013-05-19 21:01:00,
2013-05-19 15:16:00,43.4,38.3,29.86,North,11,4.0,10.0,82,0.07,,---,0.07,VWS V12.07,2013-05-19 21:16:00,
2013-05-19 15:31:00,42.7,35.7,29.87,NNW,345,7.0,13.0,76,0.04,,---,0.07,VWS V12.07,2013-05-19 21:31:00,
2013-05-19 15:46:00,42.2,34.2,29.88,NNW,334,3.0,13.0,73,0.05,,---,0.08,VWS V12.07,2013-05-19 21:46:00,
2013-05-19 16:01:00,41.8,36.1,29.87,North,355,0.0,0.0,80,0.05,,---,0.08,VWS V12.07,2013-05-19 22:01:00,
2013-05-19 16:16:00,42.0,35.7,29.88,WNW,303,3.0,11.0,78,0.03,,---,0.08,VWS V12.07,2013-05-19 22:16:00,
2013-05-19 16:31:00,42.9,34.2,29.85,SSW,205,0.0,4.0,71,0.01,,---,0.08,VWS V12.07,2013-05-19 22:31:00,
2013-05-19 16:46:00,43.9,35.8,29.84,SSW,205,0.0,4.0,73,0.01,,---,0.08,VWS V12.07,2013-05-19 22:46:00,
2013-05-19 17:01:00,44.3,35.5,29.86,SSW,200,3.0,6.0,71,0.01,,---,0.08,VWS V12.07,2013-05-19 23:01:00,
2013-05-19 17:16:00,44.2,35.4,29.86,SSE,164,4.0,7.0,71,0.00,,---,0.08,VWS V12.07,2013-05-19 23:16:00,
2013-05-19 17:31:00,45.1,35.2,29.84,South,184,7.0,13.0,68,0.00,,---,0.08,VWS V12.07,2013-05-19 23:31:00,
2013-05-19 17:46:00,45.8,33.5,29.84,SSW,197,12.0,17.0,62,0.00,,---,0.08,VWS V12.07,2013-05-19 23:46:00,
2013-05-19 18:01:00,47.6,33.1,29.82,SSW,192,16.0,16.0,57,0.00,,---,0.08,VWS V12.07,2013-05-20 00:01:00,
2013-05-19 18:16:00,46.0,34.1,29.80,SSW,194,10.0,16.0,63,0.00,,---,0.08,VWS V12.07,2013-05-20 00:16:00,
2013-05-19 18:31:00,46.6,33.5,29.80,SW,236,0.0,9.0,60,0.00,,---,0.08,VWS V12.07,2013-05-20 00:31:00,
2013-05-19 18:46:00,46.4,32.4,29.80,SSW,211,3.0,11.0,58,0.00,,---,0.08,VWS V12.07,2013-05-20 00:46:00,
2013-05-19 19:01:00,46.0,32.9,29.81,South,187,6.0,10.0,60,0.00,,---,0.08,VWS V12.07,2013-05-20 01:01:00,
2013-05-19 19:16:00,45.5,33.7,29.79,WSW,237,0.0,10.0,63,0.00,,---,0.08,VWS V12.07,2013-05-20 01:16:00,
2013-05-19 19:31:00,45.4,32.8,29.80,WSW,248,6.0,18.0,61,0.00,,---,0.08,VWS V12.07,2013-05-20 01:31:00,
2013-05-19 19:46:00,44.1,35.3,29.82,WSW,239,0.0,18.0,71,0.00,,---,0.08,VWS V12.07,2013-05-20 01:46:00,
2013-05-19 20:01:00,42.4,35.0,29.82,SW,216,10.0,10.0,75,0.00,,---,0.08,VWS V12.07,2013-05-20 02:01:00,
2013-05-19 20:16:00,41.8,34.8,29.80,South,179,9.0,17.0,76,0.00,,---,0.08,VWS V12.07,2013-05-20 02:16:00,
2013-05-19 20:31:00,41.8,34.8,29.80,South,178,4.0,7.0,76,0.00,,---,0.08,VWS V12.07,2013-05-20 02:31:00,
2013-05-19 20:46:00,41.3,34.3,29.82,South,174,11.0,15.0,76,0.00,,---,0.08,VWS V12.07,2013-05-20 02:46:00,
2013-05-19 21:01:00,41.2,33.5,29.83,South,186,7.0,9.0,74,0.00,,---,0.08,VWS V12.07,2013-05-20 03:01:00,
2013-05-19 21:16:00,40.8,33.2,29.81,South,182,4.0,11.0,74,0.00,,---,0.08,VWS V12.07,2013-05-20 03:16:00,
2013-05-19 21:31:00,40.1,32.8,29.81,SSW,196,14.0,14.0,75,0.00,,---,0.08,VWS V12.07,2013-05-20 03:31:00,
2013-05-19 21:46:00,40.1,32.8,29.81,South,190,6.0,14.0,75,0.00,,---,0.08,VWS V12.07,2013-05-20 03:46:00,
2013-05-19 22:01:00,40.0,32.4,29.82,South,190,4.0,7.0,74,0.00,,---,0.08,VWS V12.07,2013-05-20 04:01:00,
2013-05-19 22:16:00,39.3,31.7,29.80,SSW,192,4.0,8.0,74,0.00,,---,0.08,VWS V12.07,2013-05-20 04:16:00,
2013-05-19 22:31:00,38.8,31.2,29.80,SSW,196,8.0,8.0,74,0.00,,---,0.08,VWS V12.07,2013-05-20 04:31:00,
2013-05-19 22:46:00,38.2,30.7,29.80,South,169,5.0,8.0,74,0.00,,---,0.08,VWS V12.07,2013-05-20 04:46:00,
2013-05-19 23:01:00,37.2,30.7,29.80,SSE,165,6.0,7.0,77,0.00,,---,0.08,VWS V12.07,2013-05-20 05:01:00,
2013-05-19 23:16:00,36.2,30.0,29.80,South,176,4.0,7.0,78,0.00,,---,0.08,VWS V12.07,2013-05-20 05:16:00,
2013-05-19 23:31:00,36.1,29.9,29.80,South,175,5.0,5.0,78,0.00,,---,0.08,VWS V12.07,2013-05-20 05:31:00,
2013-05-19 23:46:00,35.8,29.3,29.80,South,179,4.0,7.0,77,0.00,,---,0.08,VWS V12.07,2013-05-20 05:46:00,